Location: Yecla
(38.6122°N, 1.1101°W)
Time: 22:40:14
(UTC+02:00)

ISS - Pass Details

Date: 26 May 2019
Orbit: 407 x 418 km, 51.6° (Epoch: 25 June)

Event Time Altitude Azimuth Distance (km) Brightness Sun altitude
Rises 00:57:00 0° 318° (NW) 2,361 1.0 -28.5°
Reaches altitude 10° 00:59:41 10° 340° (NNW) 1,498 0.0 -28.6°
Enters shadow 01:01:23 16° 10° (N) 1,195 -0.8 -28.7°
